Domov               UVHVVR             MKGP            O straneh              
ZDRAVSTVENO VARSTVO RASTLIN
  MREŽA AGROMET. POSTAJ
 ► PROGNOSTIČNA OBVESTILA
AGROMETEOROLOŠKI PODATKI -
ARSO
OBVLADOVANJE TVEGANJ ZARADI
NEUGODNIH VREMENSKIH RAZMER
  ► NARAVNE NESREČE
  ► SUŠA/MOČA
  ► NAMAKANJE
  ► ŽLED (gozdarstvo)
KARTOGRAFSKI PRIKAZI
SPLETNE POVEZAVE
PROJEKTI IN PUBLIKACIJE

AGROMETEOROLOŠKA MREŽA: VREMENSKE POSTAJE IN FENOLOŠKA OPAZOVANJA

Pregled podatkov za lokacijo Bilje FURS, meteorološka postaja 859083

Pregled senzorjev na lokaciji

ID Ime Zadnja
vrednost
Datum
zadnje
spremembe
Tip
senzorja
3958 Temperatura 2 m ( °C) 13,98 °C 23.10.2017 11:00 50YA
3959 Relativna vlaga 2 m (% RH) 73,71 % RH 23.10.2017 11:00 50YA
3963 Omočenost lista (U) 0 U 23.10.2017 11:00 A730WET
3964 Padavine 0.2 mm (mm) 0 mm 23.10.2017 11:00 Rain-O-Matic

Pregled podatkov zadnjih 24 ur

Zap.
št.
Datum in čas Bilje FURS
Omočenost
lista
Padavine
0.2
mm
Relativna
vlaga
2
m
Temperatura
2
m
0 23.10.2017 10:00 0 0 73,71 13,98
1 23.10.2017 09:30 0 0 76,85 13,23
2 23.10.2017 09:00 0 0 82,16 12,04
3 23.10.2017 08:30 0 0 93,11 10,06
4 23.10.2017 08:00 0 0 99,98 7,89
5 23.10.2017 07:30 0 0 100 6,98
6 23.10.2017 07:00 0 0 100 6,78
7 23.10.2017 06:30 0 0 100 6,84
8 23.10.2017 06:00 0 0 100 7,31
9 23.10.2017 05:30 0 0 100 7,84
10 23.10.2017 05:00 0 0 99,98 8,3
11 23.10.2017 04:30 0 0 99,59 8,46
12 23.10.2017 04:00 0 0 99,06 8,66
13 23.10.2017 03:30 0 0 97,76 8,88
14 23.10.2017 03:00 0 0 95,23 9,11
15 23.10.2017 02:30 0 0 90,47 9,53
16 23.10.2017 02:00 0 0 85,63 9,9
17 23.10.2017 01:30 0 0 79,48 10,47
18 23.10.2017 01:00 0 0 81,46 10,39
19 23.10.2017 00:30 0 0 81,32 10,36
20 23.10.2017 00:00 0 0 84,37 10,16
21 22.10.2017 23:30 1 0 83 10,15
22 22.10.2017 23:00 8 0 82,46 10,3
23 22.10.2017 22:30 10 0 82,77 10,27
24 22.10.2017 22:00 10 0 76,36 10,86
25 22.10.2017 21:30 6 0 80,66 10,44
26 22.10.2017 21:00 4 0 92,89 9,63
27 22.10.2017 20:30 10 0,2 98,55 9,44
28 22.10.2017 20:00 10 0 98,2 9,85
29 22.10.2017 19:30 10 0,2 95,97 9,78
30 22.10.2017 19:00 10 0,8 96,72 10,14
31 22.10.2017 18:30 10 0,2 98,7 10,66
32 22.10.2017 18:00 10 0,2 97,49 10,95
33 22.10.2017 17:30 10 0,8 96,95 11,15
34 22.10.2017 17:00 9 0,4 99,38 11,6
35 22.10.2017 16:30 10 3,6 97,75 12,17
36 22.10.2017 16:00 10 3,2 95,95 13,31
37 22.10.2017 15:30 10 0,6 92,81 13,86
38 22.10.2017 15:00 4 0,2 88,39 15,04
39 22.10.2017 14:30 7 0 98,96 15,59
40 22.10.2017 14:00 10 0 98,31 15,67
41 22.10.2017 13:30 10 0 99,26 15,31
42 22.10.2017 13:00 10 0 99,87 15,12
43 22.10.2017 12:30 10 0 100 14,76
44 22.10.2017 12:00 10 0 100 14,35
© 2011 Ministrstvo za kmetijstvo, gozdarstvo in prehrano. Vse pravice pridržane.